ITY107 LIPQ-EIDW

Flight info

Callsign ITY107
Flight time 2h 22m
Altitude 18000
Route LUPIN P125 URAVA/N0460F380 DCT VEKEN DCT ERKIR DCT BABEG DCT LIRSU DCT ARCKY DCT SPI DCT DENUT L610 KOPUL DCT SABER DCT SIVDA DCT RODOL UL28 LELDO M145 BAGSO BAGSO4L
Aircraft A339/H-SADE1E2E3GHIJ3J5M1P2RWXY/LB2D1

Departure

Time 2026-05-05 14:43
Airport Trieste Airport (LIPQ)

Arrival

Time 2026-05-05 17:06
Airport Dublin Airport (EIDW)
Time Latitude Longitude Altitude Speed Heading
2026-05-05 14:12 45.82201 13.48435 50 ft 0 kts 171°
2026-05-05 14:35 45.82203 13.48434 52 ft 1 kts 174°
2026-05-05 14:35 45.82209 13.48433 48 ft 1 kts 176°
2026-05-05 14:35 45.82216 13.48432 47 ft 1 kts 177°
2026-05-05 14:35 45.82226 13.48432 49 ft 2 kts 179°
2026-05-05 14:36 45.82237 13.48431 45 ft 2 kts 190°
2026-05-05 14:36 45.82252 13.48434 44 ft 2 kts 202°
2026-05-05 14:36 45.82267 13.48443 46 ft 2 kts 229°
2026-05-05 14:36 45.82278 13.48460 46 ft 0 kts 255°
2026-05-05 14:38 45.82261 13.48369 48 ft 10 kts 257°
2026-05-05 14:38 45.82258 13.48293 52 ft 9 kts 276°
2026-05-05 14:39 45.82316 13.48184 46 ft 20 kts 319°
2026-05-05 14:39 45.82446 13.48028 45 ft 27 kts 320°
2026-05-05 14:39 45.82576 13.47850 47 ft 24 kts 306°
2026-05-05 14:39 45.82614 13.47631 52 ft 22 kts 271°
2026-05-05 14:40 45.82616 13.47422 49 ft 21 kts 270°
2026-05-05 14:40 45.82618 13.47132 49 ft 40 kts 271°
2026-05-05 14:40 45.82620 13.46669 51 ft 49 kts 269°
2026-05-05 14:40 45.82623 13.46208 47 ft 44 kts 271°
2026-05-05 14:41 45.82622 13.45796 48 ft 39 kts 270°
2026-05-05 14:41 45.82631 13.45621 48 ft 8 kts 294°
2026-05-05 14:41 45.82665 13.45586 49 ft 5 kts 338°
2026-05-05 14:41 45.82700 13.45582 53 ft 7 kts 357°
2026-05-05 14:42 45.82751 13.45593 54 ft 7 kts 19°
2026-05-05 14:42 45.82781 13.45627 47 ft 5 kts 45°
2026-05-05 14:42 45.82793 13.45685 48 ft 7 kts 82°
2026-05-05 14:42 45.82793 13.45822 54 ft 39 kts 90°
2026-05-05 14:43 45.82787 13.46775 53 ft 147 kts 90°
2026-05-05 14:43 45.82776 13.48511 677 ft 181 kts 90°
2026-05-05 14:43 45.82436 13.50269 1890 ft 192 kts 121°
2026-05-05 14:43 45.81426 13.51572 3037 ft 202 kts 157°
2026-05-05 14:44 45.80030 13.51886 4106 ft 208 kts 189°
2026-05-05 14:44 45.78699 13.51032 5168 ft 217 kts 220°
2026-05-05 14:44 45.77856 13.49217 6230 ft 227 kts 250°
2026-05-05 14:44 45.77792 13.46932 7233 ft 234 kts 279°
2026-05-05 14:45 45.78530 13.44910 8260 ft 232 kts 306°
2026-05-05 14:45 45.79627 13.43240 9306 ft 233 kts 311°
2026-05-05 14:45 45.80805 13.41642 10330 ft 232 kts 311°
2026-05-05 14:45 45.81843 13.39920 11323 ft 225 kts 299°
2026-05-05 14:46 45.82519 13.37959 12344 ft 216 kts 284°
2026-05-05 14:46 45.82862 13.35912 13402 ft 207 kts 275°
2026-05-05 14:46 45.83209 13.33936 14390 ft 206 kts 293°
2026-05-05 14:46 45.84212 13.32470 15322 ft 213 kts 324°
2026-05-05 14:47 45.85691 13.31867 15947 ft 236 kts 353°
2026-05-05 14:47 45.87403 13.32325 16247 ft 269 kts 20°
2026-05-05 14:47 45.89051 13.33941 16216 ft 309 kts 45°
2026-05-05 14:47 45.90334 13.36643 15775 ft 356 kts 66°
2026-05-05 14:48 45.91062 13.40290 15080 ft 403 kts 80°
2026-05-05 14:48 45.92018 13.44116 15102 ft 405 kts 63°
2026-05-05 14:48 45.93638 13.47331 15561 ft 395 kts 45°
2026-05-05 14:48 45.95809 13.49721 16219 ft 393 kts 27°
2026-05-05 14:49 45.98349 13.51128 16913 ft 392 kts 10°
2026-05-05 14:49 46.01053 13.51467 17550 ft 390 kts 354°
2026-05-05 14:49 46.03756 13.51075 18194 ft 392 kts 348°
2026-05-05 14:49 46.06470 13.50475 18785 ft 396 kts 347°
2026-05-05 14:50 46.09207 13.49849 19383 ft 399 kts 347°
2026-05-05 14:50 46.11961 13.49254 20010 ft 402 kts 348°
2026-05-05 14:50 46.14750 13.48687 20577 ft 407 kts 349°
2026-05-05 14:50 46.17536 13.48142 21160 ft 410 kts 349°
2026-05-05 14:51 46.20397 13.47733 21718 ft 417 kts 355°
2026-05-05 14:51 46.23314 13.47884 22342 ft 423 kts
2026-05-05 14:51 46.26235 13.48602 22941 ft 428 kts 11°
2026-05-05 14:51 46.29160 13.49514 23515 ft 433 kts 10°
2026-05-05 14:52 46.32117 13.50406 24064 ft 435 kts 10°
2026-05-05 14:52 46.35101 13.51300 24628 ft 438 kts 10°
2026-05-05 14:52 46.38100 13.52089 25119 ft 440 kts
2026-05-05 14:52 46.41168 13.52018 25540 ft 442 kts 350°
2026-05-05 14:53 46.44126 13.50920 26135 ft 438 kts 336°
2026-05-05 14:53 46.46829 13.48906 26591 ft 437 kts 323°
2026-05-05 14:53 46.49243 13.46233 27101 ft 437 kts 317°
2026-05-05 14:53 46.51599 13.43406 27574 ft 441 kts 317°
2026-05-05 14:54 46.54001 13.40619 28136 ft 443 kts 319°
2026-05-05 14:54 46.56426 13.37851 28620 ft 444 kts 316°
2026-05-05 14:54 46.58685 13.34787 29058 ft 445 kts 312°
2026-05-05 14:54 46.60901 13.31696 29514 ft 448 kts 313°
2026-05-05 14:55 46.63188 13.28549 29737 ft 457 kts 313°
2026-05-05 14:55 46.65509 13.25368 30201 ft 459 kts 313°
2026-05-05 14:55 46.67836 13.22176 30748 ft 458 kts 313°
2026-05-05 14:55 46.70150 13.18993 31243 ft 459 kts 313°
2026-05-05 14:56 46.72471 13.15792 31704 ft 459 kts 313°
2026-05-05 14:56 46.74007 13.13670 32004 ft 460 kts 313°
2026-05-05 14:56 46.76335 13.10447 32463 ft 461 kts 313°
2026-05-05 14:56 46.78658 13.07230 32943 ft 459 kts 313°
2026-05-05 14:57 46.80976 13.04013 33224 ft 460 kts 313°
2026-05-05 14:57 46.83304 13.00776 33434 ft 462 kts 313°
2026-05-05 14:57 46.85633 12.97524 33595 ft 464 kts 312°
2026-05-05 14:57 46.87976 12.94258 33748 ft 467 kts 313°
2026-05-05 14:58 46.90328 12.90983 34022 ft 466 kts 313°
2026-05-05 14:58 46.92675 12.87716 34306 ft 464 kts 313°
2026-05-05 14:58 46.95009 12.84457 34555 ft 464 kts 313°
2026-05-05 14:58 46.97340 12.81197 34743 ft 463 kts 313°
2026-05-05 14:59 46.99667 12.77935 34948 ft 464 kts 312°
2026-05-05 14:59 47.01993 12.74670 35154 ft 463 kts 312°
2026-05-05 14:59 47.04317 12.71405 35379 ft 462 kts 312°
2026-05-05 14:59 47.06631 12.68149 35612 ft 461 kts 312°
2026-05-05 15:00 47.08943 12.64892 35855 ft 461 kts 312°
2026-05-05 15:00 47.10474 12.62731 35949 ft 461 kts 312°
2026-05-05 15:00 47.13548 12.58391 36102 ft 457 kts 312°
2026-05-05 15:00 47.15844 12.55145 36233 ft 458 kts 312°
2026-05-05 15:01 47.18145 12.51886 36374 ft 458 kts 312°
2026-05-05 15:01 47.20435 12.48638 36466 ft 458 kts 312°
2026-05-05 15:01 47.22702 12.45425 36606 ft 457 kts 311°
2026-05-05 15:01 47.24986 12.42183 36744 ft 456 kts 311°
2026-05-05 15:02 47.27268 12.38935 36855 ft 456 kts 311°
2026-05-05 15:02 47.29547 12.35688 37014 ft 456 kts 311°
2026-05-05 15:02 47.31822 12.32442 37118 ft 456 kts 311°
2026-05-05 15:02 47.34103 12.29183 37239 ft 457 kts 311°
2026-05-05 15:03 47.36382 12.25923 37406 ft 456 kts 312°
2026-05-05 15:03 47.38663 12.22656 37523 ft 456 kts 312°
2026-05-05 15:03 47.40936 12.19398 37642 ft 456 kts 312°
2026-05-05 15:03 47.43213 12.16129 37781 ft 457 kts 312°
2026-05-05 15:04 47.47757 12.09595 37811 ft 455 kts 311°
2026-05-05 15:04 47.52272 12.03081 37794 ft 453 kts 311°
2026-05-05 15:05 47.58124 11.92238 37783 ft 449 kts 303°
2026-05-05 15:06 47.61844 11.84871 37795 ft 451 kts 303°
2026-05-05 15:06 47.65622 11.77359 37795 ft 456 kts 302°
2026-05-05 15:07 47.69378 11.69851 37788 ft 455 kts 302°
2026-05-05 15:07 47.73145 11.62293 37797 ft 456 kts 302°
2026-05-05 15:08 47.76912 11.54716 37795 ft 455 kts 302°
2026-05-05 15:08 47.80668 11.47144 37807 ft 455 kts 302°
2026-05-05 15:09 47.84433 11.39528 37816 ft 458 kts 302°
2026-05-05 15:09 47.88203 11.31886 37835 ft 457 kts 302°
2026-05-05 15:10 47.91979 11.24205 37819 ft 459 kts 302°
2026-05-05 15:10 47.95728 11.16562 37829 ft 459 kts 302°
2026-05-05 15:11 47.99495 11.08860 37852 ft 459 kts 302°
2026-05-05 15:11 48.03274 11.01110 37835 ft 462 kts 302°
2026-05-05 15:12 48.07051 10.93343 37838 ft 461 kts 302°
2026-05-05 15:12 48.10815 10.85578 37816 ft 461 kts 301°
2026-05-05 15:13 48.14580 10.77792 37837 ft 461 kts 301°
2026-05-05 15:13 48.18351 10.69965 37826 ft 466 kts 301°
2026-05-05 15:14 48.22114 10.62139 37832 ft 465 kts 301°
2026-05-05 15:14 48.25890 10.54262 37832 ft 465 kts 301°
2026-05-05 15:15 48.29668 10.46358 37836 ft 465 kts 301°
2026-05-05 15:15 48.33435 10.38454 37840 ft 465 kts 301°
2026-05-05 15:16 48.37207 10.30514 37841 ft 468 kts 301°
2026-05-05 15:16 48.40987 10.22534 37841 ft 468 kts 301°
2026-05-05 15:17 48.44763 10.14541 37842 ft 468 kts 301°
2026-05-05 15:17 48.48530 10.06539 37841 ft 468 kts 301°
2026-05-05 15:18 48.52285 9.98546 37874 ft 468 kts 301°
2026-05-05 15:18 48.56033 9.90537 37844 ft 470 kts 301°
2026-05-05 15:19 48.59800 9.82470 37844 ft 470 kts 301°
2026-05-05 15:19 48.63565 9.74384 37846 ft 470 kts 301°
2026-05-05 15:20 48.67320 9.66300 37851 ft 469 kts 301°
2026-05-05 15:20 48.71221 9.58329 37853 ft 473 kts 303°
2026-05-05 15:21 48.75195 9.50467 37852 ft 473 kts 303°
2026-05-05 15:21 48.79177 9.42504 37848 ft 473 kts 303°
2026-05-05 15:22 48.83129 9.34532 37834 ft 473 kts 303°
2026-05-05 15:22 48.87076 9.26537 37835 ft 472 kts 303°
2026-05-05 15:23 48.91014 9.18534 37839 ft 475 kts 303°
2026-05-05 15:23 48.94965 9.10486 37841 ft 474 kts 303°
2026-05-05 15:24 48.98905 9.02435 37848 ft 474 kts 303°
2026-05-05 15:24 49.02837 8.94377 37844 ft 473 kts 303°
2026-05-05 15:25 49.06734 8.86368 37843 ft 474 kts 303°
2026-05-05 15:25 49.10655 8.78276 37843 ft 475 kts 303°
2026-05-05 15:26 49.14586 8.70150 37839 ft 475 kts 303°
2026-05-05 15:26 49.18502 8.62030 37839 ft 475 kts 303°
2026-05-05 15:27 49.22417 8.53884 37847 ft 475 kts 303°
2026-05-05 15:27 49.26323 8.45732 37847 ft 475 kts 303°
2026-05-05 15:28 49.30230 8.37554 37835 ft 475 kts 303°
2026-05-05 15:28 49.34103 8.29422 37834 ft 475 kts 302°
2026-05-05 15:29 49.37991 8.21232 37834 ft 475 kts 302°
2026-05-05 15:29 49.41879 8.13018 37828 ft 475 kts 302°
2026-05-05 15:30 49.45755 8.04805 37846 ft 475 kts 302°
2026-05-05 15:30 49.49629 7.96568 37828 ft 475 kts 302°
2026-05-05 15:31 49.53499 7.88318 37827 ft 475 kts 302°
2026-05-05 15:31 49.57365 7.80048 37825 ft 475 kts 302°
2026-05-05 15:32 49.61199 7.71823 37825 ft 475 kts 302°
2026-05-05 15:32 49.65076 7.63473 37812 ft 475 kts 302°
2026-05-05 15:33 49.68896 7.55226 37840 ft 475 kts 302°
2026-05-05 15:33 49.72739 7.46905 37824 ft 475 kts 302°
2026-05-05 15:34 49.76577 7.38568 37824 ft 475 kts 302°
2026-05-05 15:34 49.80408 7.30218 37821 ft 475 kts 302°
2026-05-05 15:35 49.84237 7.21845 37827 ft 477 kts 302°
2026-05-05 15:35 49.88045 7.13493 37825 ft 476 kts 302°
2026-05-05 15:36 49.91861 7.05095 37822 ft 477 kts 302°
2026-05-05 15:36 49.95677 6.96669 37814 ft 477 kts 302°
2026-05-05 15:37 49.99485 6.88239 37815 ft 476 kts 302°
2026-05-05 15:37 50.03287 6.79794 37813 ft 477 kts 302°
2026-05-05 15:38 50.07090 6.71322 37814 ft 477 kts 302°
2026-05-05 15:38 50.10886 6.62835 37811 ft 477 kts 302°
2026-05-05 15:39 50.14653 6.54389 37804 ft 477 kts 302°
2026-05-05 15:39 50.18401 6.45847 37805 ft 476 kts 299°
2026-05-05 15:40 50.21635 6.36817 37816 ft 477 kts 296°
2026-05-05 15:40 50.24833 6.27740 37818 ft 477 kts 296°
2026-05-05 15:41 50.28026 6.18651 37836 ft 477 kts 296°
2026-05-05 15:41 50.31404 6.09714 37838 ft 479 kts 301°
2026-05-05 15:42 50.35102 6.01102 37826 ft 479 kts 301°
2026-05-05 15:42 50.38789 5.92423 37836 ft 478 kts 301°
2026-05-05 15:43 50.42467 5.83741 37839 ft 478 kts 301°
2026-05-05 15:43 50.45524 5.76505 37836 ft 478 kts 301°
2026-05-05 15:44 50.49195 5.67793 37837 ft 478 kts 301°
2026-05-05 15:44 50.52829 5.59058 37846 ft 476 kts 298°
2026-05-05 15:45 50.56196 5.50106 37852 ft 475 kts 297°
2026-05-05 15:45 50.59537 5.41131 37854 ft 475 kts 297°
2026-05-05 15:46 50.62905 5.32171 37863 ft 475 kts 298°
2026-05-05 15:46 50.66275 5.23216 37843 ft 475 kts 298°
2026-05-05 15:47 50.69617 5.14305 37866 ft 475 kts 298°
2026-05-05 15:47 50.72997 5.05255 37862 ft 475 kts 298°
2026-05-05 15:48 50.76330 4.96300 37862 ft 476 kts 298°
2026-05-05 15:48 50.79667 4.87312 37865 ft 473 kts 297°
2026-05-05 15:49 50.82992 4.78315 37867 ft 474 kts 297°
2026-05-05 15:49 50.86310 4.69308 37877 ft 474 kts 297°
2026-05-05 15:50 50.89610 4.60313 37884 ft 472 kts 297°
2026-05-05 15:50 50.92904 4.51308 37884 ft 472 kts 297°
2026-05-05 15:51 50.96171 4.42343 37886 ft 472 kts 297°
2026-05-05 15:51 50.99455 4.33301 37885 ft 472 kts 297°
2026-05-05 15:52 51.02730 4.24251 37884 ft 472 kts 297°
2026-05-05 15:52 51.05998 4.15189 37883 ft 472 kts 297°
2026-05-05 15:53 51.09258 4.06118 37880 ft 472 kts 297°
2026-05-05 15:53 51.12491 3.97089 37874 ft 472 kts 297°
2026-05-05 15:54 51.15735 3.87994 37873 ft 472 kts 297°
2026-05-05 15:54 51.18972 3.78888 37877 ft 472 kts 297°
2026-05-05 15:55 51.22060 3.69682 37872 ft 469 kts 292°
2026-05-05 15:55 51.24289 3.59944 37874 ft 466 kts 283°
2026-05-05 15:56 51.25704 3.49836 37868 ft 465 kts 279°
2026-05-05 15:56 51.27058 3.39730 37882 ft 465 kts 279°
2026-05-05 15:57 51.28369 3.29683 37891 ft 465 kts 279°
2026-05-05 15:57 51.29664 3.19559 37899 ft 463 kts 279°
2026-05-05 15:58 51.30944 3.09488 37903 ft 462 kts 279°
2026-05-05 15:58 51.32214 2.99402 37906 ft 464 kts 279°
2026-05-05 15:59 51.33480 2.89310 37893 ft 462 kts 279°
2026-05-05 15:59 51.34735 2.79216 37898 ft 463 kts 279°
2026-05-05 16:00 51.35977 2.69161 37898 ft 463 kts 279°
2026-05-05 16:00 51.37190 2.59326 37902 ft 463 kts 278°
2026-05-05 16:01 51.38424 2.49230 37903 ft 463 kts 278°
2026-05-05 16:01 51.39654 2.39087 37916 ft 464 kts 279°
2026-05-05 16:02 51.40873 2.28978 37911 ft 462 kts 278°
2026-05-05 16:02 51.42095 2.18854 37915 ft 463 kts 279°
2026-05-05 16:03 51.43328 2.08766 37918 ft 464 kts 278°
2026-05-05 16:03 51.44557 1.98659 37919 ft 460 kts 278°
2026-05-05 16:04 51.45743 1.88516 37923 ft 465 kts 279°
2026-05-05 16:04 51.46928 1.78291 37921 ft 465 kts 279°
2026-05-05 16:05 51.48111 1.68085 37930 ft 464 kts 278°
2026-05-05 16:05 51.49281 1.57851 37931 ft 466 kts 279°
2026-05-05 16:06 51.50445 1.47604 37936 ft 465 kts 278°
2026-05-05 16:06 51.51596 1.37358 37936 ft 469 kts 278°
2026-05-05 16:07 51.52744 1.27062 37936 ft 468 kts 278°
2026-05-05 16:07 51.54778 1.17143 37935 ft 472 kts 296°
2026-05-05 16:08 51.58751 1.08748 37937 ft 476 kts 315°
2026-05-05 16:08 51.64014 1.02355 37936 ft 478 kts 323°
2026-05-05 16:09 51.69410 0.96112 37941 ft 478 kts 322°
2026-05-05 16:09 51.74487 0.89271 37949 ft 476 kts 317°
2026-05-05 16:10 51.79515 0.82303 37946 ft 475 kts 317°
2026-05-05 16:10 51.84497 0.75387 37939 ft 474 kts 317°
2026-05-05 16:11 51.89492 0.68416 37941 ft 474 kts 317°
2026-05-05 16:12 51.99475 0.54414 37947 ft 474 kts 317°
2026-05-05 16:13 52.11917 0.36839 37941 ft 473 kts 317°
2026-05-05 16:13 52.16884 0.29787 37937 ft 473 kts 317°
2026-05-05 16:14 52.26772 0.15680 37937 ft 473 kts 317°
2026-05-05 16:15 52.36409 0.01175 37944 ft 469 kts 310°
2026-05-05 16:16 52.44492 -0.15470 37957 ft 467 kts 307°
2026-05-05 16:17 52.50500 -0.27972 37964 ft 467 kts 307°
2026-05-05 16:18 52.56489 -0.40531 37967 ft 464 kts 306°
2026-05-05 16:19 52.62459 -0.53117 37966 ft 465 kts 306°
2026-05-05 16:19 52.68414 -0.65731 37966 ft 464 kts 306°
2026-05-05 16:20 52.76304 -0.82541 37993 ft 464 kts 306°
2026-05-05 16:22 52.86166 -1.03715 37989 ft 465 kts 306°
2026-05-05 16:23 52.94044 -1.20685 37992 ft 465 kts 306°
2026-05-05 16:23 52.99892 -1.33453 37991 ft 465 kts 306°
2026-05-05 16:24 53.03800 -1.41996 37989 ft 464 kts 306°
2026-05-05 16:25 53.09649 -1.54832 37989 ft 463 kts 306°
2026-05-05 16:25 53.15475 -1.67680 37999 ft 463 kts 306°
2026-05-05 16:26 53.23140 -1.84943 38004 ft 463 kts 302°
2026-05-05 16:27 53.26221 -1.94307 38014 ft 458 kts 295°
2026-05-05 16:27 53.29065 -2.03863 38016 ft 459 kts 296°
2026-05-05 16:28 53.31921 -2.13422 38020 ft 459 kts 295°
2026-05-05 16:28 53.34735 -2.22936 38019 ft 459 kts 295°
2026-05-05 16:29 53.36986 -2.32911 38022 ft 458 kts 286°
2026-05-05 16:29 53.38911 -2.43087 38020 ft 458 kts 287°
2026-05-05 16:30 53.40851 -2.53265 38022 ft 458 kts 287°
2026-05-05 16:30 53.42771 -2.63424 38021 ft 453 kts 287°
2026-05-05 16:31 53.44351 -2.71853 38032 ft 458 kts 287°
2026-05-05 16:31 53.46546 -2.83615 38044 ft 455 kts 287°
2026-05-05 16:32 53.48122 -2.92104 38046 ft 452 kts 287°
2026-05-05 16:32 53.49986 -3.02197 38048 ft 456 kts 287°
2026-05-05 16:33 53.51855 -3.12367 38047 ft 456 kts 287°
2026-05-05 16:33 53.53722 -3.22581 38047 ft 457 kts 286°
2026-05-05 16:34 53.55578 -3.32793 38046 ft 456 kts 286°
2026-05-05 16:34 53.57426 -3.43018 38043 ft 456 kts 286°
2026-05-05 16:35 53.59263 -3.53244 38040 ft 457 kts 286°
2026-05-05 16:35 53.61064 -3.63332 38035 ft 456 kts 286°
2026-05-05 16:36 53.63285 -3.73363 38036 ft 457 kts 291°
2026-05-05 16:36 53.64484 -3.78321 37896 ft 454 kts 291°
2026-05-05 16:36 53.65667 -3.83254 37231 ft 454 kts 291°
2026-05-05 16:37 53.66849 -3.88206 36181 ft 455 kts 291°
2026-05-05 16:37 53.68037 -3.93191 34899 ft 458 kts 290°
2026-05-05 16:37 53.69226 -3.98183 33406 ft 459 kts 290°
2026-05-05 16:37 53.70394 -4.03199 31667 ft 460 kts 288°
2026-05-05 16:38 53.71290 -4.08374 29951 ft 460 kts 281°
2026-05-05 16:38 53.71829 -4.13660 28420 ft 454 kts 275°
2026-05-05 16:38 53.72058 -4.18932 27299 ft 446 kts 272°
2026-05-05 16:38 53.72240 -4.24105 26514 ft 436 kts 273°
2026-05-05 16:39 53.72431 -4.29064 26030 ft 420 kts 273°
2026-05-05 16:39 53.72619 -4.33937 25761 ft 405 kts 273°
2026-05-05 16:39 53.72796 -4.38655 25519 ft 410 kts 273°
2026-05-05 16:39 53.72971 -4.43455 25209 ft 408 kts 272°
2026-05-05 16:40 53.73142 -4.48245 24482 ft 409 kts 272°
2026-05-05 16:40 53.73311 -4.52996 23814 ft 403 kts 273°
2026-05-05 16:40 53.73475 -4.57685 23086 ft 394 kts 273°
2026-05-05 16:40 53.73634 -4.62239 22446 ft 382 kts 273°
2026-05-05 16:41 53.73785 -4.66652 21792 ft 371 kts 273°
2026-05-05 16:41 53.73930 -4.70951 21159 ft 361 kts 273°
2026-05-05 16:41 53.74069 -4.75138 20533 ft 352 kts 273°
2026-05-05 16:41 53.74211 -4.79411 19899 ft 382 kts 273°
2026-05-05 16:42 53.74362 -4.84009 19211 ft 398 kts 273°
2026-05-05 16:42 53.74514 -4.88685 18626 ft 396 kts 273°
2026-05-05 16:42 53.74663 -4.93307 17803 ft 392 kts 273°
2026-05-05 16:42 53.74807 -4.97848 17017 ft 381 kts 274°
2026-05-05 16:43 53.74943 -5.02217 16379 ft 365 kts 274°
2026-05-05 16:43 53.75072 -5.06412 15726 ft 351 kts 274°
2026-05-05 16:43 53.75169 -5.10470 15097 ft 340 kts 270°
2026-05-05 16:43 53.74986 -5.14389 14470 ft 330 kts 263°
2026-05-05 16:44 53.74488 -5.18155 13886 ft 338 kts 255°
2026-05-05 16:44 53.73694 -5.22046 13516 ft 356 kts 252°
2026-05-05 16:44 53.72885 -5.25946 12898 ft 357 kts 252°
2026-05-05 16:44 53.72068 -5.29947 11806 ft 363 kts 252°
2026-05-05 16:45 53.71260 -5.33929 11108 ft 351 kts 252°
2026-05-05 16:45 53.70489 -5.37720 10592 ft 334 kts 252°
2026-05-05 16:45 53.69753 -5.41337 10234 ft 315 kts 252°
2026-05-05 16:45 53.69066 -5.44701 9958 ft 293 kts 252°
2026-05-05 16:46 53.68424 -5.47908 9278 ft 285 kts 255°
2026-05-05 16:46 53.68071 -5.51101 8851 ft 272 kts 267°
2026-05-05 16:46 53.68083 -5.54342 8717 ft 275 kts 275°
2026-05-05 16:46 53.68194 -5.57490 8619 ft 261 kts 275°
2026-05-05 16:47 53.68280 -5.60429 8460 ft 241 kts 274°
2026-05-05 16:47 53.68350 -5.63145 8318 ft 223 kts 274°
2026-05-05 16:47 53.68249 -5.65666 8176 ft 211 kts 256°
2026-05-05 16:47 53.67550 -5.67779 8060 ft 204 kts 230°
2026-05-05 16:48 53.66539 -5.69578 8063 ft 213 kts 230°
2026-05-05 16:48 53.65547 -5.71398 8062 ft 209 kts 231°
2026-05-05 16:48 53.64565 -5.73228 8057 ft 211 kts 228°
2026-05-05 16:48 53.63290 -5.74459 8062 ft 217 kts 195°
2026-05-05 16:49 53.61788 -5.74390 8061 ft 220 kts 163°
2026-05-05 16:49 53.60528 -5.73029 8065 ft 220 kts 131°
2026-05-05 16:49 53.59681 -5.70886 8057 ft 220 kts 116°
2026-05-05 16:49 53.58980 -5.68587 8057 ft 220 kts 115°
2026-05-05 16:50 53.58233 -5.66340 8061 ft 220 kts 119°
2026-05-05 16:50 53.57360 -5.64214 8060 ft 221 kts 130°
2026-05-05 16:50 53.56205 -5.62514 8063 ft 222 kts 146°
2026-05-05 16:50 53.54874 -5.61203 8058 ft 222 kts 150°
2026-05-05 16:51 53.53542 -5.59912 8057 ft 221 kts 150°
2026-05-05 16:51 53.52212 -5.58593 8055 ft 221 kts 149°
2026-05-05 16:51 53.50890 -5.57259 8057 ft 221 kts 149°
2026-05-05 16:51 53.49562 -5.55951 8051 ft 221 kts 153°
2026-05-05 16:52 53.48140 -5.55065 8062 ft 220 kts 167°
2026-05-05 16:52 53.46630 -5.54655 8055 ft 220 kts 174°
2026-05-05 16:52 53.45109 -5.54291 8056 ft 220 kts 173°
2026-05-05 16:52 53.43598 -5.53902 8056 ft 220 kts 172°
2026-05-05 16:53 53.42086 -5.53493 8059 ft 220 kts 172°
2026-05-05 16:53 53.40573 -5.53085 8057 ft 220 kts 174°
2026-05-05 16:53 53.39052 -5.53031 8055 ft 218 kts 188°
2026-05-05 16:53 53.37571 -5.53524 8056 ft 217 kts 197°
2026-05-05 16:54 53.36105 -5.54130 8052 ft 217 kts 196°
2026-05-05 16:54 53.34638 -5.54708 8056 ft 217 kts 195°
2026-05-05 16:54 53.33163 -5.55269 8057 ft 217 kts 195°
2026-05-05 16:54 53.31686 -5.55821 8057 ft 217 kts 195°
2026-05-05 16:55 53.30247 -5.56562 8060 ft 215 kts 206°
2026-05-05 16:55 53.28968 -5.57767 8057 ft 213 kts 218°
2026-05-05 16:55 53.27757 -5.59191 8060 ft 213 kts 218°
2026-05-05 16:55 53.26536 -5.60598 8061 ft 213 kts 217°
2026-05-05 16:56 53.25312 -5.61987 8063 ft 212 kts 218°
2026-05-05 16:56 53.24372 -5.63814 8064 ft 207 kts 249°
2026-05-05 16:56 53.24178 -5.66121 8063 ft 201 kts 282°
2026-05-05 16:56 53.24778 -5.68147 8046 ft 195 kts 315°
2026-05-05 16:57 53.25773 -5.69657 7801 ft 194 kts 319°
2026-05-05 16:57 53.26780 -5.71170 7489 ft 194 kts 318°
2026-05-05 16:57 53.27756 -5.72730 7205 ft 193 kts 316°
2026-05-05 16:57 53.28701 -5.74318 6937 ft 192 kts 315°
2026-05-05 16:58 53.29611 -5.75890 6685 ft 190 kts 315°
2026-05-05 16:58 53.30524 -5.77486 6436 ft 189 kts 315°
2026-05-05 16:58 53.31430 -5.79070 6155 ft 188 kts 315°
2026-05-05 16:58 53.32333 -5.80647 5878 ft 187 kts 315°
2026-05-05 16:59 53.33232 -5.82215 5611 ft 186 kts 315°
2026-05-05 16:59 53.34126 -5.83775 5383 ft 185 kts 315°
2026-05-05 16:59 53.35017 -5.85327 5122 ft 185 kts 315°
2026-05-05 16:59 53.35905 -5.86874 4869 ft 184 kts 316°
2026-05-05 17:00 53.36777 -5.88393 4634 ft 183 kts 316°
2026-05-05 17:00 53.37662 -5.89927 4390 ft 183 kts 316°
2026-05-05 17:00 53.38543 -5.91463 4134 ft 183 kts 316°
2026-05-05 17:00 53.39425 -5.93002 3917 ft 183 kts 316°
2026-05-05 17:01 53.40207 -5.94655 3739 ft 180 kts 300°
2026-05-05 17:01 53.40493 -5.96633 3672 ft 173 kts 277°
2026-05-05 17:01 53.40555 -5.98583 3628 ft 161 kts 278°
2026-05-05 17:01 53.40627 -6.00396 3547 ft 150 kts 280°
2026-05-05 17:02 53.40712 -6.02100 3411 ft 144 kts 281°
2026-05-05 17:02 53.40810 -6.03773 3186 ft 145 kts 281°
2026-05-05 17:02 53.40915 -6.05449 2969 ft 145 kts 281°
2026-05-05 17:02 53.41019 -6.07133 2734 ft 146 kts 281°
2026-05-05 17:03 53.41118 -6.08782 2533 ft 143 kts 280°
2026-05-05 17:03 53.41237 -6.10453 2500 ft 148 kts 281°
2026-05-05 17:03 53.41320 -6.12133 2502 ft 146 kts 279°
2026-05-05 17:03 53.41399 -6.13834 2361 ft 144 kts 277°
2026-05-05 17:04 53.41454 -6.15542 1924 ft 151 kts 277°
2026-05-05 17:04 53.41540 -6.17352 1320 ft 159 kts 278°
2026-05-05 17:04 53.41648 -6.19167 930 ft 151 kts 278°
2026-05-05 17:04 53.41771 -6.20843 752 ft 141 kts 279°
2026-05-05 17:05 53.41875 -6.22437 514 ft 133 kts 278°
2026-05-05 17:05 53.41965 -6.24110 384 ft 144 kts 278°
2026-05-05 17:05 53.42058 -6.25731 242 ft 134 kts 278°
2026-05-05 17:05 53.42141 -6.27058 237 ft 86 kts 274°
2026-05-05 17:06 53.42180 -6.27718 238 ft 28 kts 281°
2026-05-05 17:06 53.42192 -6.27798 239 ft 3 kts 284°
2026-05-05 17:06 53.42233 -6.27947 237 ft 16 kts 298°
2026-05-05 17:06 53.42251 -6.28003 238 ft 9 kts 298°
2026-05-05 17:07 53.42271 -6.28056 238 ft 0 kts 302°
2026-05-05 17:10 53.42278 -6.28076 237 ft 7 kts 303°
2026-05-05 17:10 53.42345 -6.28122 236 ft 9 kts 11°
2026-05-05 17:10 53.42364 -6.28051 231 ft 8 kts 83°
2026-05-05 17:11 53.42351 -6.27879 231 ft 23 kts 94°
2026-05-05 17:11 53.42338 -6.27537 231 ft 36 kts 94°
2026-05-05 17:11 53.42317 -6.27063 231 ft 45 kts 94°
2026-05-05 17:11 53.42279 -6.26519 231 ft 49 kts 95°
2026-05-05 17:12 53.42257 -6.26067 231 ft 41 kts 96°
2026-05-05 17:12 53.42231 -6.25568 231 ft 35 kts 95°
2026-05-05 17:12 53.42212 -6.25301 231 ft 22 kts 97°
2026-05-05 17:12 53.42229 -6.25015 236 ft 27 kts 61°
2026-05-05 17:13 53.42343 -6.24870 231 ft 18 kts 11°
2026-05-05 17:13 53.42474 -6.24951 232 ft 18 kts 335°
2026-05-05 17:13 53.42566 -6.24901 231 ft 14 kts 39°
2026-05-05 17:13 53.42666 -6.24854 232 ft 17 kts 29°
2026-05-05 17:14 53.42721 -6.24743 234 ft 9 kts 64°
2026-05-05 17:14 53.42719 -6.24664 231 ft 5 kts 122°
2026-05-05 17:14 53.42687 -6.24634 232 ft 5 kts 155°
2026-05-05 17:14 53.42674 -6.24626 232 ft 0 kts 159°